Helicity
21 24 26 -20 -13 27 95 20 37 34 0 3 45 75 27 14 25 46 75 92 66 131 165 206 243 349 392 281 128 173 194 183 166 161 163 161 161 140 139 147 148 141 126 121 112 90 76 55 52
22 25 10 -48 85 174 104 31 52 16 14 38 74 74 96 33 18 74 72 10 70 106 152 182 230 291 315 307 84 186 286 156 116 121 124 157 142 144 157 153 135 124 122 121 96 70 44 21 28
21 24 -24 1 86 146 134 72 25 30 54 44 80 144 140 127 114 90 50 60 67 116 181 175 223 281 409 470 116 147 159 162 99 108 116 151 149 158 163 142 122 115 112 118 94 55 33 39 46
35 -8 -4 59 134 100 105 142 61 36 31 28 38 106 113 69 69 57 56 71 69 77 134 142 181 257 202 165 46 129 154 154 94 100 112 142 164 164 141 138 126 116 126 126 81 44 39 64 66
34 1 42 69 115 55 39 17 46 16 15 28 44 83 118 63 57 38 39 99 84 60 83 66 189 177 167 122 84 95 220 123 78 94 116 143 157 148 141 131 123 122 136 124 97 102 112 69 41
50 3 90 133 131 45 9 61 116 36 32 32 67 101 118 134 88 44 40 51 78 101 60 35 107 199 242 268 161 87 137 113 84 98 121 144 130 114 119 123 115 124 141 138 122 104 81 58 27
76 4 44 80 91 19 26 92 72 68 75 58 87 113 99 113 75 52 96 67 82 149 143 100 121 279 289 134 35 67 188 120 84 103 111 127 125 107 105 112 111 118 147 156 132 90 47 25 26
29 -25 33 51 78 39 64 108 134 114 60 89 85 69 89 68 38 81 94 114 97 149 223 323 209 166 283 185 95 11 149 96 113 125 127 121 100 93 87 93 82 104 132 166 148 106 37 9 28
6 -26 74 46 49 20 108 126 126 132 91 95 71 67 101 63 37 41 53 86 109 136 203 236 161 335 392 258 260 -3 125 183 171 167 129 172 140 118 109 87 76 87 106 139 141 115 62 22 20
-13 2 16 20 59 -28 63 111 159 132 144 115 87 95 127 100 25 23 36 47 122 163 214 145 288 517 689 522 133 67 82 112 137 146 176 182 123 100 41 26 33 50 94 147 123 83 65 23 16
-15 -8 8 83 140 81 111 148 133 174 141 135 111 116 116 118 57 81 53 78 121 153 172 99 -16 91 31 174 217 141 202 161 156 161 185 174 144 90 73 62 50 20 81 107 87 80 64 30 25
17 9 21 -18 18 95 154 144 141 164 127 139 86 86 90 110 42 41 58 45 78 118 126 141 126 166 122 152 49 -25 55 113 100 171 182 158 146 99 51 30 9 20 48 50 51 71 53 40 29
110 2 -49 -1 15 42 153 109 154 218 135 89 84 70 35 79 -37 6 59 70 86 122 105 119 163 135 93 102 51 5 -15 111 221 154 152 166 128 103 33 42 40 23 56 44 37 51 56 50 49
54 -27 -17 -54 3 23 94 128 184 210 151 103 100 77 63 101 48 20 54 88 122 140 168 179 94 84 48 -4 -45 48 79 199 176 191 170 132 105 82 48 65 33 30 64 21 24 32 34 43 54
42 -41 -75 -47 -35 -2 137 143 186 207 154 103 85 81 91 96 93 66 62 75 128 228 166 167 160 149 200 -17 76 165 200 163 197 202 154 95 85 64 78 48 40 28 41 43 50 50 53 52 56
47 -9 -67 -57 -15 8 87 125 156 212 161 114 68 63 82 79 100 94 75 65 80 88 144 157 133 116 59 58 106 258 390 228 182 198 172 116 68 56 107 65 40 44 47 51 48 50 50 58 42
83 16 -30 -88 -29 21 156 112 120 183 157 142 92 55 46 80 102 83 88 81 78 75 187 145 148 99 145 110 352 319 371 281 182 208 194 139 60 79 72 31 57 63 64 38 70 62 75 68 51
78 89 49 25 -14 -15 30 98 102 149 154 144 126 71 46 37 71 84 103 89 113 109 81 181 208 108 81 181 309 337 323 273 221 230 127 143 90 159 68 67 -9 -11 28 49 100 91 90 89 98
117 110 74 -12 72 55 116 59 66 130 142 132 145 93 88 41 42 90 91 102 118 128 159 139 145 161 157 130 167 225 111 67 109 96 46 38 151 122 66 1 -32 19 9 68 90 125 136 129 144
66 76 33 56 71 72 34 67 14 145 174 179 152 104 99 63 78 92 99 116 112 139 126 143 155 149 42 -34 24 31 -64 -66 6 27 66 -60 -6 37 2 -25 27 57 103 116 156 168 182 142 161
45 81 41 76 82 88 45 2 7 42 141 144 90 100 109 157 124 106 102 107 109 124 121 107 99 89 72 39 -25 -72 -162 -131 -144 -118 -163 -116 -10 3 5 -26 -62 60 115 130 164 198 214 221 184
59 45 47 82 101 172 111 82 -18 19 108 158 130 119 155 175 151 127 124 114 132 117 112 101 92 49 43 4 -33 -82 -82 -107 -122 -109 -137 -153 -100 -95 -15 -13 -47 114 130 135 164 204 239 266 273
46 53 101 104 79 137 119 156 63 77 40 105 129 126 129 189 218 232 201 136 100 109 120 75 69 30 24 -10 -65 -89 -108 -136 -149 -206 -253 -276 -267 -235 -118 -59 24 118 153 151 178 208 260 272 281
58 94 141 135 136 123 104 142 89 80 37 24 137 139 178 157 174 144 170 123 75 71 85 92 74 35 10 24 11 -16 -41 -76 -94 -141 -185 -243 -272 -228 -129 -71 38 98 151 165 186 238 255 277 283
147 155 140 135 178 97 69 129 89 55 5 26 27 114 197 231 170 171 159 182 164 143 112 131 123 96 55 30 6 3 -7 -19 -46 -90 -111 -158 -167 -146 -91 13 64 135 169 171 224 237 216 296 323
137 161 189 116 123 73 110 105 54 31 11 32 -9 30 181 218 220 244 232 211 183 197 171 178 156 103 113 100 42 13 -8 -44 -59 -82 -99 -80 -90 -92 23 51 120 180 218 147 147 205 183 215 261
88 151 119 137 118 84 64 110 105 66 15 12 14 68 95 214 215 261 306 258 217 204 217 229 228 168 152 155 138 97 64 31 -7 -37 -79 -75 -42 35 60 76 124 194 220 132 169 160 169 240 293
107 141 184 202 110 99 86 95 112 54 41 23 12 13 40 139 173 239 291 315 310 296 273 235 208 222 228 195 157 139 129 68 55 100 72 26 22 76 112 181 196 199 200 186 170 226 223 265 302
161 100 128 115 138 90 27 8 75 46 32 67 20 0 27 86 112 172 299 332 366 320 306 309 234 249 229 240 266 228 154 169 162 130 119 207 246 206 196 211 156 169 75 115 155 149 186 218 331
102 117 70 140 152 140 124 49 147 62 26 54 48 34 50 64 102 158 239 307 332 342 348 377 334 310 363 383 411 445 306 261 208 243 392 358 409 259 265 294 141 60 -60 0 61 172 244 274 350
Wind_Speed
32 29 33 36 38 40 45 47 45 51 38 39 37 37 35 34 32 34 34 32 18 6 9 12 10 5 3 13 14 20 15 13 20 25 31 34 36 38 38 39 40 42 42 42 41 39 39 39 42
31 31 34 33 39 45 50 39 52 41 32 30 34 37 34 36 35 25 31 25 10 6 8 13 14 9 7 12 21 19 21 21 23 30 36 37 37 38 38 41 42 43 43 40 37 35 33 32 31
29 32 31 34 37 45 47 34 39 35 43 30 39 44 41 38 36 26 26 17 9 3 7 9 14 10 5 22 30 25 24 27 27 30 34 35 37 37 39 41 43 41 38 36 33 31 31 32 34
29 30 33 33 36 30 29 31 33 32 39 32 27 42 40 37 36 38 32 20 4 8 10 9 12 8 12 19 72 30 27 27 26 28 31 34 36 38 38 39 38 37 34 32 30 29 35 35 37
33 28 29 31 34 35 25 32 38 40 37 44 41 42 40 29 35 42 35 22 12 11 14 13 12 8 13 16 52 33 31 31 30 30 31 34 34 36 37 37 36 34 34 34 33 35 35 34 34
29 27 28 34 34 35 30 27 32 43 38 39 34 33 33 35 36 38 34 23 14 14 15 18 19 13 17 14 31 46 37 31 28 29 29 31 32 33 34 36 33 33 32 35 38 34 33 32 31
25 23 23 25 32 37 30 29 32 35 34 30 35 32 31 29 37 36 30 20 16 10 10 8 19 23 24 22 33 40 32 35 30 29 28 28 31 32 32 33 33 32 33 36 37 31 28 29 27
24 23 23 26 31 25 23 25 33 33 30 35 38 29 31 33 26 25 25 19 13 11 10 5 13 14 14 22 40 34 35 36 34 31 28 29 31 31 29 30 29 31 34 38 34 26 23 26 25
22 20 18 25 28 26 21 22 26 30 38 34 33 35 35 31 25 22 23 15 12 12 12 5 3 11 26 30 33 36 40 38 34 31 31 26 25 24 24 26 25 26 32 33 32 26 24 25 24
18 17 18 21 14 20 11 15 24 28 34 30 28 33 35 34 22 18 18 15 10 13 12 20 21 6 27 32 37 61 38 38 32 31 27 23 25 23 30 22 21 21 27 25 22 29 21 18 11
19 12 16 15 26 10 11 16 24 26 25 22 23 27 29 32 24 21 15 16 12 16 14 24 37 39 35 27 35 50 55 42 30 28 26 23 20 21 20 18 17 13 20 16 17 20 9 9 7
14 6 7 4 32 18 14 19 20 18 29 27 24 25 25 23 23 17 15 13 10 14 17 30 25 40 43 30 41 36 36 36 29 26 28 25 19 17 23 21 18 11 19 17 15 12 6 7 6
10 15 13 2 40 11 18 15 17 23 30 30 31 29 24 27 22 21 15 13 12 9 15 20 23 30 36 62 62 68 33 47 26 26 27 24 21 17 18 21 11 5 14 14 13 8 13 12 7
20 18 17 6 12 14 14 20 37 24 25 31 31 29 28 32 32 22 17 12 9 7 16 16 32 53 62 65 49 39 29 27 31 26 24 22 21 20 13 17 8 4 8 12 8 6 21 17 11
27 2 16 7 12 9 15 24 14 23 23 26 27 29 32 33 32 27 23 18 6 15 12 25 26 15 16 19 20 23 25 27 26 24 24 21 21 16 15 11 7 4 4 6 12 21 25 22 19
42 26 10 15 23 18 15 1 19 18 21 21 26 28 31 33 32 33 29 24 17 6 10 11 13 23 24 23 20 19 28 26 21 22 21 19 18 17 9 7 4 3 4 17 27 31 33 26 23
33 8 9 15 25 11 11 6 22 14 16 18 21 24 29 30 31 33 34 31 31 16 4 12 15 20 28 19 19 30 27 23 22 19 18 17 17 14 9 7 10 14 25 45 36 41 36 30 30
25 9 17 14 22 30 4 10 21 11 12 13 17 21 27 26 28 31 34 34 34 36 27 10 14 22 29 26 29 34 31 41 26 18 19 17 14 11 15 18 27 64 59 52 26 20 37 36 24
23 34 25 35 12 12 10 16 8 6 6 7 13 18 23 26 22 28 31 34 36 37 46 50 45 17 21 31 26 33 30 74 75 27 76 73 28 29 61 67 66 63 64 18 18 28 27 33 29
41 42 20 51 13 24 4 5 5 5 7 5 7 15 24 30 20 23 29 32 35 36 41 49 50 55 65 69 74 77 80 76 77 75 79 76 73 63 69 70 69 46 36 32 23 24 32 36 25
48 42 35 24 58 32 20 4 9 6 6 3 12 12 28 34 26 24 27 33 33 36 41 44 50 50 57 66 70 73 74 75 76 77 78 81 76 72 70 74 63 15 25 19 25 26 23 28 29
52 34 24 40 42 23 15 14 10 3 7 2 26 21 32 38 26 29 30 36 38 40 39 43 47 48 53 58 61 64 70 70 76 79 81 83 80 80 76 76 68 39 43 35 29 23 25 25 23
37 41 52 53 17 28 28 28 19 15 1 18 39 36 36 41 37 34 37 43 42 36 38 39 41 43 49 54 49 49 57 57 72 75 75 80 81 79 77 50 24 41 40 40 30 29 29 28 29
45 55 62 48 34 21 28 22 19 5 10 10 24 36 32 38 43 43 35 35 38 36 36 38 40 42 44 49 52 47 47 43 46 56 62 66 67 71 63 42 24 27 40 38 35 33 33 31 35
44 45 48 45 32 29 42 36 20 12 6 9 22 39 26 32 44 48 40 38 37 41 42 39 39 44 45 49 49 54 52 50 52 52 50 53 54 55 63 36 31 36 46 49 53 48 44 36 33
49 42 38 45 46 52 42 46 36 9 8 11 54 50 21 23 30 43 48 42 41 38 38 37 40 45 48 47 46 44 46 41 46 45 38 30 41 42 30 30 30 36 34 64 54 59 52 37 35
57 52 48 52 53 58 51 52 55 35 20 52 14 5 27 24 22 31 40 38 38 38 41 43 46 50 48 49 43 42 36 41 37 34 32 30 31 46 42 41 38 35 59 37 45 35 31 31 32
57 45 48 47 57 56 54 49 39 42 61 52 54 28 25 24 22 24 34 39 39 45 44 41 44 48 49 46 48 40 33 36 34 35 38 36 35 40 55 56 50 53 55 48 50 44 42 33 36
49 58 55 56 56 64 87 69 36 40 53 39 33 2 12 10 27 24 24 29 38 39 38 42 39 46 44 45 40 36 37 32 32 34 45 44 44 46 48 55 48 56 56 56 41 41 36 28 28
60 63 63 58 59 58 71 86 31 29 49 47 45 19 23 11 18 19 20 23 26 33 31 37 44 43 44 37 36 37 35 35 32 38 40 42 43 41 38 33 62 30 38 41 38 28 29 30 31
Wind_Direction
24 36 29 24 2 360 350 348 357 350 2 2 3 7 3 338 318 306 292 304 311 204 194 165 166 184 347 299 212 161 144 162 131 122 115 106 101 99 94 91 89 87 84 81 77 73 69 66 60
33 34 27 23 359 352 350 3 357 0 12 18 4 350 358 334 320 334 307 315 344 113 159 149 150 160 153 153 243 197 173 164 140 126 118 110 106 100 94 92 90 88 85 80 75 71 67 63 55
42 34 27 15 5 354 355 12 2 10 354 6 340 334 332 332 322 338 324 325 310 297 171 164 150 155 189 268 217 192 163 155 144 131 122 113 107 99 96 92 90 86 81 77 70 65 64 62 67
33 25 19 13 3 6 12 18 19 360 346 8 15 339 336 331 328 313 320 328 303 256 242 210 191 181 167 223 218 187 162 166 150 138 126 116 108 102 97 92 88 85 79 70 58 61 79 73 73
22 19 19 14 10 12 24 15 7 2 357 348 353 344 336 345 330 314 315 325 272 241 263 251 194 161 183 188 216 194 156 178 149 141 130 119 110 104 97 91 88 83 77 70 61 72 79 76 72
13 20 21 13 16 19 22 28 17 353 357 355 8 4 355 332 325 320 312 315 316 281 259 215 192 173 168 171 209 205 150 168 170 148 135 123 113 105 98 92 87 83 76 70 68 72 79 77 72
24 34 33 28 17 19 32 33 18 7 11 16 8 2 2 4 335 307 318 315 325 346 328 193 191 179 153 153 210 211 165 161 164 152 139 128 115 106 98 93 89 82 77 72 68 71 76 80 74
30 41 40 35 22 25 51 45 26 24 22 10 6 18 8 1 7 355 347 312 321 351 7 53 146 162 158 151 207 192 167 169 173 155 148 131 118 107 101 94 90 83 79 75 68 64 70 82 76
43 55 54 34 32 37 55 55 51 40 18 26 25 15 7 5 13 15 15 324 325 347 326 328 215 195 165 154 172 179 175 168 163 159 143 137 117 109 98 94 89 83 81 72 62 61 71 81 77
59 77 57 46 58 228 126 94 54 44 36 38 37 33 31 10 352 6 27 19 20 79 7 63 43 309 173 168 161 201 178 171 170 165 166 141 124 116 102 100 94 79 77 66 57 66 70 75 56
46 106 27 233 223 182 74 74 51 46 42 54 49 54 53 42 351 324 344 344 30 76 51 80 89 101 119 165 191 205 208 203 182 167 162 151 137 116 107 101 88 74 67 53 49 56 41 52 51
40 149 41 67 356 36 56 57 52 57 37 53 65 80 75 71 66 55 30 39 40 82 85 106 93 101 121 139 183 151 200 196 173 170 158 151 144 136 115 106 97 80 71 63 52 53 308 297 273
27 24 19 147 319 92 39 43 43 37 38 53 70 72 93 71 63 64 58 39 79 88 105 116 111 114 121 136 144 150 156 205 193 163 166 160 145 148 125 110 103 65 66 58 58 26 265 274 279
5 3 218 44 95 71 56 18 353 28 55 52 77 77 94 108 122 71 70 68 90 115 117 132 130 140 146 150 140 143 162 184 201 179 186 177 150 141 142 116 116 65 58 58 45 360 252 259 276
348 338 216 46 51 56 27 358 18 17 52 59 76 90 89 122 102 108 89 92 74 277 125 139 140 173 196 180 159 168 180 167 199 185 188 164 152 162 145 135 131 100 41 21 292 264 252 256 275
324 347 161 44 30 44 50 126 20 31 39 69 64 97 106 117 118 102 91 79 70 119 238 166 168 159 162 221 213 201 214 196 187 193 182 176 164 164 162 169 204 250 280 277 261 250 248 264 274
319 126 48 30 19 54 112 32 17 62 66 82 80 116 131 105 117 113 118 104 101 85 188 184 187 176 225 221 216 224 218 210 191 188 192 175 168 177 176 208 261 251 261 243 255 248 257 270 278
316 338 353 14 21 20 141 201 16 85 65 98 76 121 147 129 114 110 114 111 110 113 109 215 226 221 227 234 223 233 234 235 230 205 199 212 200 229 237 250 190 212 227 241 266 273 266 275 294
319 304 328 211 206 10 210 205 170 80 36 70 115 132 146 154 111 114 116 120 118 119 138 145 142 162 222 232 177 231 173 215 205 173 198 203 247 244 226 213 209 225 204 167 269 275 280 285 293
292 296 310 257 222 11 116 162 94 121 173 167 137 140 157 162 118 117 126 128 130 126 135 148 147 152 161 168 178 187 192 205 208 206 205 203 211 226 219 215 227 238 267 269 269 276 281 285 297
284 291 300 320 306 344 349 6 20 53 12 161 181 165 170 173 157 137 138 144 135 136 142 143 148 147 155 167 175 187 192 207 200 201 199 209 218 226 233 220 200 229 271 260 265 271 277 290 296
282 290 301 309 320 328 344 337 341 155 168 178 181 176 177 180 162 161 152 156 151 149 143 147 149 149 156 162 165 173 184 186 196 202 212 220 228 226 235 227 206 269 272 273 266 261 271 285 295
283 291 294 298 303 319 321 329 351 10 71 184 195 192 187 183 174 168 168 171 163 150 149 148 151 154 160 165 163 165 177 180 199 204 203 208 209 207 215 199 220 271 273 275 266 266 268 278 289
280 287 287 301 307 290 306 313 326 310 331 186 187 190 187 184 184 181 169 163 167 158 155 155 156 160 163 167 171 171 172 171 176 185 191 194 196 204 206 204 242 242 274 273 269 266 270 269 282
275 281 291 297 287 288 301 310 314 329 178 177 184 195 186 182 184 187 178 172 168 170 170 166 165 169 170 174 175 180 181 181 185 186 188 190 195 201 210 213 229 269 276 278 278 276 275 273 273
269 267 277 294 292 297 301 299 317 350 148 349 235 208 188 186 182 186 188 184 180 176 177 178 178 181 180 180 182 183 187 188 193 193 196 205 205 209 264 239 255 259 269 278 282 281 280 278 279
267 265 276 284 292 295 293 297 294 310 320 292 199 164 176 181 191 187 188 191 192 189 187 186 186 190 190 191 191 194 197 199 204 211 217 230 249 276 279 282 278 272 275 276 274 278 275 276 278
259 273 275 279 283 286 290 295 299 304 283 304 277 191 182 183 191 193 188 192 193 196 196 195 196 196 198 198 200 205 216 216 226 256 261 256 258 271 282 284 285 285 290 278 278 284 285 286 283
265 262 269 277 280 281 272 282 301 305 294 309 309 273 201 217 186 190 190 192 195 199 202 204 205 206 206 208 214 223 226 237 251 250 263 262 271 277 283 283 282 290 280 277 283 289 288 278 282
272 267 266 266 272 282 278 262 299 318 297 308 307 309 292 268 211 220 212 200 205 205 211 213 213 214 215 222 228 231 238 243 247 255 265 260 268 278 281 296 277 280 282 285 289 278 283 281 284